Location: Dehesa de la Cepeda
(40.6574°N, 4.3013°W)
Time: 17:17:45
(UTC+00:00)

SR - Pass Details

Date: 04 August 2021
Orbit: 580 x 874 km, 66.7° (Epoch: 16 September)

Event Time Altitude Azimuth Distance (km) Brightness Sun altitude
Rises 04:36:32 0° 183° (S) 3,446 ? -7.7°
Reaches altitude 10° 04:39:14 10° 174° (S) 2,501 ? -7.2°
Maximum altitude 04:44:26 35° 111° (ESE) 1,338 ? -6.4°
Drops below altitude 10° 04:49:27 10° 47° (NE) 2,407 ? -5.5°
Sets 04:52:00 0° 39° (NE) 3,300 ? -5.1°
